User: anonymous   Login
Location: Unspecified
(0.0000°N, 0.0000°E)
Time: 02:08:29
(UTC+00:00)
Language:

GE 3 - Orbit

View from above orbital plane
View from above orbital plane
View from above satellite
View from above satellite

Ground track
Ground track

The orbit is defined by the following mean orbital elements,

1 24936U          26145.31294808 +.00000000 +00000-0 +00000-0 0 00000
2 24936   8.0920  64.3488 0003081   1.0184 218.1718  1.00270575    09
Epoch (UTC): 25 May 2026 07:30:38
Eccentricity: 0.0003081
inclination: 8.0920°
perigee height: 35774 km
apogee height: 35800 km
right ascension of ascending node: 64.3488°
argument of perigee: 1.0184°
revolutions per day: 1.00270575
mean anomaly at epoch: 218.1718°

The dashed part of the orbit path shows where the satellite is in the earth's shadow,  

DLR